Regional Weather Roundup
Issued by NWS Huntsville, AL

Home | Current Version | Previous Version | Text Only | Print | Product List | Glossary On
Versions: 1 2 3 4 5 6 7 8 9 10 11 12 13 14 15 16 17 18 19 20 21 22 23 24 25 26 27 28 29 30 31 32 33 34 35 36 37 38 39 40 41 42 43 44 45 46 47 48 49 50
000
ASUS44 KHUN 172110
RWRHUN

WEATHER ROUNDUP FOR THE TENNESSEE VALLEY
NATIONAL WEATHER SERVICE HUNTSVILLE AL
400 PM CDT WED SEP 17 2014

ALZ001>004-172200-
NORTHWEST ALABAMA

CITY           SKY/WX    TMP DP  RH WIND       PRES   REMARKS
SHOALS AIRPORT MOSUNNY   80  53  39 NW3       29.97S
$$

ALZ005>007-016-172200-
NORTH CENTRAL ALABAMA

CITY           SKY/WX    TMP DP  RH WIND       PRES   REMARKS
DECATUR AP     MOSUNNY   82  50  32 NW7       29.95F
HUNTSVILLE AP  PTSUNNY   83  50  31 NW5       29.96S
HUN NWS/UAH      N/A     80  48  32 NW5         N/A
MERIDIANVILLE  MOSUNNY   79  41  25 N9        29.97S
VINEMONT AP    FAIR      81  53  37 NW6       29.98S
$$

ALZ008>010-172200-
NORTHEAST ALABAMA

CITY           SKY/WX    TMP DP  RH WIND       PRES   REMARKS
ALBERTVILLE    SUNNY     79  59  50 N9        29.95S
FORT PAYNE     SUNNY     79  46  31 N7        29.94S
SCOTTSBORO AP  SUNNY     77  55  47 NW5       29.96R
SCOTTSBORO HCN   N/A     77 N/A N/A MISG        N/A
VALLEY HEAD      N/A     77 N/A N/A MISG        N/A
$$

TNZ076-096-097-172200-
SOUTHEASTERN MIDDLE TENNESSEE

CITY           SKY/WX    TMP DP  RH WIND       PRES   REMARKS
FAYETTEVILLE   SUNNY     73  54  49 N9        29.98S
TULLAHOMA      SUNNY     73  54  49 N9        30.00S
WINCHESTER     SUNNY     75  55  50 N8        29.98F
$$

...SURROUNDING SITES...

CITY           SKY/WX    TMP DP  RH WIND       PRES   REMARKS
ATLANTA        PTSUNNY   85  60  42 NW9       29.90F
ANNISTON       SUNNY     85  58  39 W14       29.91F
BIRMINGHAM     PTSUNNY   85  59  41 N13       29.95S
CHATTANOOGA    PTSUNNY   79  57  46 N5        29.95S
CORINTH        FAIR      75  63  64 N6        29.96F
DALTON         SUNNY     75  57  53 CALM      29.95S
GADSDEN        SUNNY     84  52  32 NW7       29.92S
GOLDEN TRNGL   PTSUNNY   84  64  51 NE9       29.95F
HALEYVILLE     FAIR      80  61  52 N9        29.99S
JACKSON TN     CLOUDY    69  57  65 W8        29.98F
LEWISBURG      FAIR      73  58  59 NW5       29.99F
MEMPHIS        CLOUDY    75  62  64 VRB3      29.97F
MURFREESBORO   FAIR      71  54  55 VRB5      29.99S
NASHVILLE      PTSUNNY   72  55  55 NE3       29.99F
OXFORD MS      PTSUNNY   79  66  65 N5        29.98F
ROME           SUNNY     84  55  36 W8        29.91S
SAVANNAH       SUNNY     73  52  46 N3        29.98F
TUPELO         PTSUNNY   80  63  55 E8        29.95F
TUSCALOOSA     PTSUNNY   87  65  47 NW6       29.92F
$$

...GULF COAST WEATHER...

CITY           SKY/WX    TMP DP  RH WIND       PRES   REMARKS
GULFPORT       MOSUNNY   87  73  62 VRB6      29.89F HX  94
PASCAGOULA     SUNNY     86  72  62 S8        29.90F HX  92
MOBILE         CLOUDY    86  73  65 VRB3      29.90F HX  93
GULF SHORES    MOCLDY    84  73  69 S9        29.90S HX  90
PENSACOLA      PTSUNNY   85  73  67 S12       29.89S HX  91
DESTIN         SUNNY     87  73  62 VRB6      29.89S HX  94
PANAMA CITY    SUNNY     86  77  73 SW8       29.89F HX  97
APPALACHICOLA  SUNNY     86  71  60 S9        29.88F HX  91
$$




USA.gov is the U.S. government's official web portal to all federal, state and local government web resources and services.